GW1027 Weather Reports


time (UTC)temp
F
wind
direction
speed
knots
gust
knots
rain 1hr
in
rain 24hr
in
rain mn
in
humidity
%
barometer
mb
20260504110703 49 75 2.6 2.6 0.00 0.00 0.00 64 985.4
20260504110203 49 75 2.6 2.6 0.00 0.00 0.00 64 985.4
20260504100203 49 90 2.6 4.3 0.00 0.00 0.00 68 985.4
20260504081704 48 88 2.6 4.3 0.00 0.00 0.00 74 985.7
20260504081204 48 92 2.6 2.6 0.00 0.00 0.00 74 985.7
20260504080703 48 95 1.7 2.6 0.00 0.00 0.00 73 985.8
20260504080203 48 89 2.6 6.1 0.00 0.00 0.00 73 985.7
20260504070204 47 81 2.6 4.3 0.00 0.00 0.00 72 985.8
20260504060204 47 88 2.6 5.2 0.00 0.00 0.00 68 985.9
20260504050704 48 86 2.6 4.3 0.00 0.00 0.00 59 985.9
20260504050204 48 93 2.6 4.3 0.00 0.00 0.00 58 985.9
20260504045703 48 85 1.7 4.3 0.00 0.00 0.00 57 985.9
20260504045203 48 105 1.7 4.3 0.00 0.00 0.00 55 986.0
20260504044703 48 57 1.7 2.6 0.00 0.00 0.00 54 986.0
20260504044203 48 88 2.6 4.3 0.00 0.00 0.00 53 986.1
20260504043704 48 88 2.6 5.2 0.00 0.00 0.00 52 986.2
20260504042703 48 91 2.6 4.3 0.00 0.00 0.00 51 986.2
20260504042204 48 73 4.3 6.1 0.00 0.00 0.00 50 986.2
20260504041704 48 95 2.6 2.6 0.00 0.00 0.00 51 986.1
20260504041204 48 88 1.7 2.6 0.00 0.00 0.00 50 986.1
20260504040703 48 84 2.6 4.3 0.00 0.00 0.00 50 986.1
20260504040203 48 88 3.5 5.2 0.00 0.00 0.00 49 986.1
20260504035704 48 91 4.3 5.2 0.00 0.00 0.00 48 986.0
20260504035204 47 83 4.3 5.2 0.00 0.00 0.00 48 986.0
20260504034703 46 88 1.7 4.3 0.00 0.00 0.00 54 986.0
20260504034204 46 91 1.7 4.3 0.00 0.00 0.00 54 986.0
20260504032704 44 88 0.9 1.7 0.00 0.00 0.00 58 986.1
20260504032204 44 93 0.0 2.6 0.00 0.00 0.00 62 986.1
20260504031204 45 86 0.0 0.9 0.00 0.00 0.00 52 986.0
20260504030704 45 108 0.0 0.9 0.00 0.00 0.00 52 986.0
20260504030204 46 107 0.0 0.9 0.00 0.00 0.00 53 986.0
20260504025203 46 73 0.0 0.9 0.00 0.00 0.00 50 986.0
20260504024703 46 123 0.9 1.7 0.00 0.00 0.00 49 986.0
20260504024203 45 85 0.9 1.7 0.00 0.00 0.00 50 986.1
20260504023703 45 98 0.9 1.7 0.00 0.00 0.00 49 986.2
20260504023203 44 92 0.0 1.7 0.00 0.00 0.00 53 986.2
20260504022704 44 135 0.9 1.7 0.00 0.00 0.00 53 986.2
20260504022203 44 95 0.0 1.7 0.00 0.00 0.00 52 986.2
20260504020703 43 110 0.9 1.7 0.00 0.00 0.00 53 986.3
20260504015203 44 88 0.0 2.6 0.00 0.00 0.00 60 986.4
20260504014704 44 85 0.9 1.7 0.00 0.00 0.00 53 986.3
20260504013703 43 318 1.7 2.6 0.00 0.00 0.00 55 986.3
20260504013203 42 76 0.9 1.7 0.00 0.00 0.00 56 986.3
20260504012703 41 117 0.0 1.7 0.00 0.00 0.00 61 986.1
20260504011703 41 42 0.0 0.9 0.00 0.00 0.00 61 986.1
20260504011204 41 82 0.0 0.9 0.00 0.00 0.00 64 986.1
20260504010704 42 174 1.7 2.6 0.00 0.00 0.00 63 986.1
20260504010203 43 97 0.9 1.7 0.00 0.00 0.00 59 985.9
20260504005703 43 93 0.0 1.7 0.00 0.00 0.00 59 985.8
20260504005204 43 88 0.0 0.9 0.00 0.00 0.00 59 985.7
20260504004704 43 75 0.9 0.9 0.00 0.00 0.00 59 985.6
20260504004204 43 90 0.0 0.9 0.00 0.00 0.00 58 985.6
20260504003704 43 128 0.0 0.9 0.00 0.00 0.00 59 985.5
20260504003203 44 110 0.0 0.9 0.00 0.00 0.00 58 985.5
20260504002204 45 169 0.0 0.9 0.00 0.00 0.00 56 985.4
20260504001703 45 169 0.9 1.7 0.00 0.00 0.00 55 985.3
20260504001204 46 265 0.9 1.7 0.00 0.00 0.00 54 985.3
20260504000703 46 113 0.9 1.7 0.00 0.00 0.00 54 985.2
20260503234704 49 186 1.7 5.2 0.00 0.00 0.00 46 985.0
20260503234203 49 255 0.0 1.7 0.00 0.00 0.00 46 985.0
20260503233704 49 239 1.7 4.3 0.00 0.00 0.00 46 984.9
20260503233204 50 119 0.0 1.7 0.00 0.00 0.00 45 984.9
20260503232704 50 213 0.9 2.6 0.00 0.00 0.00 44 984.9
20260503232204 50 219 1.7 5.2 0.00 0.00 0.00 43 984.9
20260503231703 50 237 3.5 7.0 0.00 0.00 0.00 42 984.8
20260503231203 51 213 2.6 7.0 0.00 0.00 0.00 42 984.8
20260503230704 51 140 0.9 2.6 0.00 0.00 0.00 42 984.8
20260503230204 51 107 1.7 7.0 0.00 0.00 0.00 42 984.8
20260503225704 51 108 1.7 6.1 0.00 0.00 0.00 43 984.8
20260503225204 51 152 1.7 6.1 0.00 0.00 0.00 44 984.8
20260503224203 52 97 1.7 4.3 0.00 0.00 0.00 42 984.8
20260503223703 52 198 1.7 6.1 0.00 0.00 0.00 42 984.9
20260503223203 52 171 1.7 7.8 0.00 0.00 0.00 43 984.9
20260503222703 51 149 1.7 6.1 0.00 0.00 0.00 43 984.9
20260503222204 51 108 2.6 7.8 0.00 0.00 0.00 44 984.9
20260503221703 52 205 1.7 4.3 0.00 0.00 0.00 46 984.9
20260503221204 53 99 0.9 2.6 0.00 0.00 0.00 45 984.9
20260503220703 53 117 1.7 2.6 0.00 0.00 0.00 45 984.9
20260503220204 52 118 1.7 4.3 0.00 0.00 0.00 46 984.9
20260503215704 52 207 0.9 2.6 0.00 0.00 0.00 46 984.9
20260503214703 52 184 2.6 6.1 0.00 0.00 0.00 46 984.8
20260503214203 52 153 0.9 4.3 0.00 0.00 0.00 45 984.7
20260503213704 52 134 0.9 2.6 0.00 0.00 0.00 45 984.7
20260503213203 52 228 0.9 4.3 0.00 0.00 0.00 45 984.7
20260503212204 51 190 0.9 4.3 0.00 0.00 0.00 46 984.8
20260503211703 51 248 1.7 4.3 0.00 0.00 0.00 46 984.8
20260503210203 51 101 1.7 4.3 0.00 0.00 0.00 46 984.8
20260503205703 51 92 2.6 5.2 0.00 0.00 0.00 47 984.8
20260503205204 51 132 1.7 5.2 0.00 0.00 0.00 47 984.9
20260503204703 51 193 1.7 2.6 0.00 0.00 0.00 47 984.9
20260503204204 50 127 0.9 2.6 0.00 0.00 0.00 47 984.9
20260503203204 50 95 1.7 5.2 0.00 0.00 0.00 47 985.0
20260503202703 50 255 0.9 4.3 0.00 0.00 0.00 47 984.9
20260503202203 50 88 1.7 5.2 0.00 0.00 0.00 47 985.0
20260503201204 51 78 1.7 6.1 0.00 0.00 0.00 46 985.0
20260503200703 51 199 2.6 6.1 0.00 0.00 0.00 45 985.0
20260503200204 50 117 2.6 4.3 0.00 0.00 0.00 47 985.0
20260503195704 50 99 1.7 6.1 0.00 0.00 0.00 47 985.1
20260503195203 50 244 0.0 5.2 0.00 0.00 0.00 47 985.3
20260503194703 49 68 1.7 6.1 0.00 0.00 0.00 47 985.2
20260503194203 49 237 2.6 7.0 0.00 0.00 0.00 47 985.3
20260503193704 49 247 4.3 7.8 0.00 0.00 0.00 48 985.4
20260503193203 49 227 2.6 5.2 0.00 0.00 0.00 48 985.4
20260503192703 49 102 1.7 4.3 0.00 0.00 0.00 47 985.5
20260503192204 50 92 2.6 5.2 0.00 0.00 0.00 47 985.5
20260503191704 50 174 1.7 6.1 0.00 0.00 0.00 47 985.6
20260503191204 50 221 2.6 6.1 0.00 0.00 0.00 47 985.5
20260503190703 50 248 2.6 6.1 0.00 0.00 0.00 47 985.5
20260503190204 49 252 2.6 7.0 0.00 0.00 0.00 47 985.6
20260503185703 50 108 2.6 5.2 0.00 0.00 0.00 46 985.6
20260503185204 50 111 2.6 4.3 0.00 0.00 0.00 46 985.7
20260503184704 50 231 2.6 7.0 0.00 0.00 0.00 46 985.7
20260503184204 50 109 2.6 7.8 0.00 0.00 0.00 47 985.8
20260503183704 50 178 1.7 5.2 0.00 0.00 0.00 47 985.7
20260503183203 50 115 1.7 7.8 0.00 0.00 0.00 46 985.8
20260503182704 50 229 2.6 7.0 0.00 0.00 0.00 45 985.8
20260503182204 49 233 4.3 7.8 0.00 0.00 0.00 46 985.8
20260503181703 49 190 2.6 7.0 0.00 0.00 0.00 47 985.8
20260503180703 48 200 2.6 11.3 0.00 0.00 0.00 47 985.8
20260503180203 49 115 4.3 7.8 0.00 0.00 0.00 47 985.8
20260503175203 49 229 2.6 6.1 0.00 0.00 0.00 48 985.9
20260503174703 49 201 2.6 6.1 0.00 0.00 0.00 47 985.9
20260503174204 48 182 1.7 5.2 0.00 0.00 0.00 47 985.9
20260503173703 48 141 1.7 5.2 0.00 0.00 0.00 47 985.8
20260503173203 48 203 5.2 8.7 0.00 0.00 0.00 47 985.9
20260503172203 47 108 1.7 7.8 0.00 0.00 0.00 49 986.0
20260503171203 48 154 1.7 6.1 0.00 0.00 0.00 48 986.0
20260503170704 48 233 2.6 7.0 0.00 0.00 0.00 48 985.9
20260503160204 53 127 4.3 7.8 0.00 0.00 0.00 44 986.1
20260503150704 48 92 2.6 7.8 0.00 0.00 0.00 47 986.3
20260503150205 49 193 1.7 7.8 0.00 0.00 0.00 45 986.4
20260503140204 47 163 1.7 6.1 0.00 0.00 0.00 65 986.9
20260503131204 45 174 1.7 6.1 0.00 0.00 0.00 70 987.1
20260503130703 45 187 1.7 4.3 0.00 0.00 0.00 72 987.2
20260503130204 45 214 1.7 5.2 0.00 0.00 0.00 72 987.2
20260503120203 41 208 0.9 2.6 0.00 0.00 0.00 86 987.2